Weather History for Dutch Harbor, AK

Change the Weather History Date:

Wednesday, November 23, 2011

  Actual Average Record
Temperature  
Mean Temperature 34 °F -  
Max Temperature 39 °F 40 °F 48 °F (2001)
Min Temperature 28 °F 29 °F 23 °F (1986)
Degree Days  
Heating Degree Days 32    
Moisture  
Dew Point 28 °F    
Average Humidity 82    
Maximum Humidity 93    
Minimum Humidity 59    
Precipitation  
Precipitation 0.07 in - - ()
Sea Level Pressure  
Sea Level Pressure 29.41 in    
Wind  
Wind Speed 6 mph (WSW)    
Max Wind Speed 22 mph    
Max Gust Speed 43 mph    
Visibility 6 miles    
Events Snow    
Averages and records for this station are not official NWS values.
T = Trace of Precipitation, MM = Missing Value Source: NWS Daily Summary

Daily Weather History Graph

Daily Weather History Graph

Search for Another Location

Airport:

Trip Planner

Search our weather history database for the weather conditions in past years. The results will help you decide how hot, cold, wet, or windy it might be!

Date:

Astronomy

Nov. 23, 2011 Rise Set
Actual Time 9:48 AM AKST 5:56 PM AKST
Civil Twilight 9:07 AM AKST 6:37 PM AKST
Nautical Twilight 8:23 AM AKST 7:21 PM AKST
Astronomical Twilight 7:40 AM AKST 8:03 PM AKST
Moon 8:03 AM AKST (11/23) 4:49 PM AKST (11/23)
Length of Visible Light 9h 30m
Length of Day
8h 08m
Waning Crescent, 3% of the Moon is Illuminated
Nov 23
Waning Crescent
Nov 24
New
Dec 2
First Quarter
Dec 10
Full
Dec 17
Last Quarter

Hourly Weather History & Observations

Time (AKST) Temp. Windchill Dew Point Humidity Pressure Visibility Wind Dir Wind Speed Gust Speed Precip Events Conditions
12:52 AM 32.0 °F - 26.6 °F 80% 29.50 in 10.0 mi Calm Calm - N/A   Overcast
12:58 AM 32.0 °F - 27.0 °F 82% 29.52 in 10.0 mi Calm Calm - N/A   Overcast
1:32 AM 30.2 °F - 26.6 °F 86% 29.50 in 10.0 mi Calm Calm - N/A   Overcast
1:37 AM 30.2 °F - 26.6 °F 86% 29.50 in 10.0 mi Calm Calm - N/A   Overcast
1:47 AM 30.2 °F 26.7 °F 26.6 °F 86% 29.49 in 10.0 mi SSW 3.5 mph - N/A   Overcast
1:58 AM 32.0 °F 28.7 °F 27.0 °F 82% 29.51 in 10.0 mi South 3.5 mph - N/A   Overcast
2:58 AM 30.9 °F - 28.0 °F 89% 29.49 in 10.0 mi Calm Calm - N/A   Overcast
3:34 AM 30.2 °F - 28.4 °F 93% 29.46 in 10.0 mi Calm Calm - N/A   Overcast
3:51 AM 30.2 °F 26.7 °F 28.4 °F 93% 29.46 in 10.0 mi South 3.5 mph - N/A   Overcast
3:58 AM 30.9 °F 27.5 °F 28.0 °F 89% 29.47 in 10.0 mi South 3.5 mph - N/A   Overcast
4:08 AM 30.2 °F 24.3 °F 28.4 °F 93% 29.45 in 10.0 mi SSW 5.8 mph - N/A   Overcast
4:58 AM 30.9 °F - 27.0 °F 85% 29.45 in 10.0 mi Calm Calm - N/A   Overcast
5:58 AM 30.9 °F - 26.1 °F 82% 29.44 in 10.0 mi Calm Calm - N/A   Overcast
6:28 AM 32.0 °F 27.5 °F 26.6 °F 80% 29.41 in 10.0 mi South 4.6 mph - N/A   Overcast
6:58 AM 32.0 °F 28.7 °F 26.1 °F 79% 29.43 in 10.0 mi South 3.5 mph - N/A   Overcast
7:01 AM 32.0 °F 28.7 °F 26.6 °F 80% 29.42 in 10.0 mi South 3.5 mph - N/A   Overcast
7:58 AM 32.0 °F 28.7 °F 25.0 °F 75% 29.44 in 10.0 mi South 3.5 mph - N/A   Overcast
8:48 AM 33.8 °F 28.6 °F 26.6 °F 75% 29.42 in 9.0 mi South 5.8 mph - 0.00 in Snow Light Snow
8:58 AM 32.0 °F 28.7 °F 26.1 °F 79% 29.43 in 10.0 mi SSE 3.5 mph - 0.00 in Snow Light Snow
9:39 AM 32.0 °F 25.6 °F 26.6 °F 80% 29.40 in 4.0 mi South 6.9 mph - 0.00 in Snow Light Snow
9:58 AM 32.0 °F 26.4 °F 28.0 °F 85% 29.42 in 4.0 mi SSW 5.8 mph - 0.00 in Snow Light Snow
10:01 AM 32.0 °F 24.8 °F 28.4 °F 87% 29.40 in 9.0 mi South 8.1 mph - 0.00 in Snow Light Snow
10:05 AM 32.0 °F 27.5 °F 28.4 °F 87% 29.40 in 3.0 mi SSW 4.6 mph - 0.00 in Snow Light Snow
10:25 AM 32.0 °F - 28.4 °F 87% 29.39 in 2.0 mi Calm Calm - 0.00 in Snow Light Snow
10:44 AM 32.0 °F 26.4 °F 28.4 °F 87% 29.39 in 1.5 mi SSW 5.8 mph - 0.00 in Snow Light Snow
10:58 AM 33.1 °F 26.1 °F 28.9 °F 85% 29.40 in 1.5 mi SSW 8.1 mph - 0.00 in Snow Light Snow
11:01 AM 33.8 °F 27.0 °F 28.4 °F 81% 29.38 in 2.0 mi SSW 8.1 mph - 0.00 in Snow Light Snow
11:12 AM 33.8 °F 27.0 °F 28.4 °F 81% 29.38 in 2.0 mi SSW 8.1 mph - 0.00 in Snow Light Snow
11:22 AM 33.8 °F 26.4 °F 28.4 °F 81% 29.38 in 3.0 mi SSW 9.2 mph - 0.00 in Snow Light Snow
11:32 AM 33.8 °F 27.7 °F 28.4 °F 81% 29.38 in 2.5 mi SSW 6.9 mph - 0.00 in Snow Light Snow
11:38 AM 33.8 °F 27.7 °F 28.4 °F 81% 29.38 in 3.0 mi SSW 6.9 mph - 0.00 in Snow Light Snow
11:58 AM 33.1 °F 26.9 °F 28.9 °F 85% 29.39 in 3.0 mi SSW 6.9 mph - 0.00 in Snow Light Snow
12:02 PM 33.8 °F 27.7 °F 28.4 °F 81% 29.37 in 8.0 mi SSW 6.9 mph - 0.00 in Snow Light Snow
12:11 PM 33.8 °F 28.6 °F 30.2 °F 87% 29.37 in 4.0 mi SW 5.8 mph - 0.00 in Snow Light Snow
12:22 PM 33.8 °F 27.0 °F 30.2 °F 87% 29.37 in 1.0 mi SW 8.1 mph - 0.00 in Snow Light Snow
12:39 PM 33.8 °F 28.6 °F 30.2 °F 87% 29.36 in 1.5 mi SW 5.8 mph - 0.01 in Snow Light Snow
12:49 PM 33.8 °F 29.6 °F 30.2 °F 87% 29.35 in 3.0 mi SSE 4.6 mph - 0.02 in Snow Light Snow
12:58 PM 34.0 °F 28.0 °F 30.0 °F 85% 29.37 in 3.0 mi Variable 6.9 mph - 0.02 in Snow Light Snow
1:02 PM 33.8 °F 25.3 °F 30.2 °F 87% 29.34 in 9.0 mi SSW 11.5 mph - 0.00 in Snow Light Snow
1:10 PM 33.8 °F 25.8 °F 30.2 °F 87% 29.35 in 6.0 mi SSW 10.4 mph - 0.00 in Snow Light Snow
1:28 PM 35.6 °F 27.1 °F 30.2 °F 81% 29.35 in 3.0 mi West 12.7 mph - 0.00 in Snow Light Snow
1:37 PM 33.8 °F 26.4 °F 30.2 °F 87% 29.34 in 1.5 mi WSW 9.2 mph - 0.00 in Snow Light Snow
1:58 PM 34.0 °F 27.2 °F 30.9 °F 89% 29.35 in 1.5 mi WSW 8.1 mph - 0.00 in Snow Light Snow
2:02 PM 35.6 °F 30.7 °F 30.2 °F 81% 29.33 in 5.0 mi WSW 5.8 mph - 0.00 in Snow Light Snow
2:19 PM 35.6 °F 27.5 °F 30.2 °F 81% 29.33 in 2.0 mi WSW 11.5 mph - 0.01 in Snow Light Snow
2:25 PM 35.6 °F 28.0 °F 30.2 °F 81% 29.33 in 6.0 mi West 10.4 mph - 0.01 in Snow Light Snow
2:39 PM 35.6 °F 27.5 °F 32.0 °F 87% 29.31 in 10.0 mi SSW 11.5 mph - 0.01 in   Mostly Cloudy
2:58 PM 37.9 °F 29.6 °F 32.0 °F 79% 29.32 in 10.0 mi WSW 13.8 mph 17.3 mph 0.01 in   Mostly Cloudy
3:43 PM 39.2 °F 32.5 °F 26.6 °F 61% 29.28 in 10.0 mi West 10.4 mph 20.7 mph N/A   Mostly Cloudy
3:58 PM 39.0 °F 29.9 °F 26.1 °F 60% 29.29 in 10.0 mi WSW 17.3 mph 25.3 mph N/A   Mostly Cloudy
4:58 PM 37.9 °F 31.5 °F 28.0 °F 68% 29.28 in 10.0 mi West 9.2 mph 20.7 mph N/A   Mostly Cloudy
4:59 PM 37.4 °F 29.8 °F 28.4 °F 70% 29.26 in 10.0 mi West 11.5 mph 18.4 mph N/A   Mostly Cloudy
5:21 PM 35.6 °F 25.5 °F 30.2 °F 81% 29.28 in 4.0 mi West 17.3 mph - 0.01 in Snow Light Snow
5:33 PM 35.6 °F 25.9 °F 30.2 °F 81% 29.32 in 3.0 mi North 16.1 mph 42.6 mph 0.02 in Snow Light Snow
5:58 PM 33.1 °F 22.2 °F 28.0 °F 82% 29.37 in 6.0 mi East 17.3 mph 36.8 mph 0.02 in Snow Light Snow
5:59 PM 33.8 °F 25.8 °F 28.4 °F 81% 29.36 in 7.0 mi NE 10.4 mph 32.2 mph 0.00 in Snow Light Snow
6:03 PM 33.8 °F 25.3 °F 26.6 °F 75% 29.35 in 6.0 mi East 11.5 mph 26.5 mph 0.00 in Snow Light Snow
6:20 PM 33.8 °F 26.4 °F 26.6 °F 75% 29.37 in 10.0 mi NE 9.2 mph 33.4 mph 0.00 in   Overcast
6:26 PM 33.8 °F 23.2 °F 26.6 °F 75% 29.37 in 10.0 mi NE 17.3 mph 29.9 mph 0.00 in   Overcast
6:52 PM 33.8 °F 25.8 °F 26.6 °F 75% 29.39 in 4.0 mi North 10.4 mph 31.1 mph 0.00 in   Haze
6:58 PM 32.0 °F 23.6 °F 28.0 °F 85% 29.42 in 3.0 mi North 10.4 mph 31.1 mph 0.01 in   Overcast
7:04 PM 32.0 °F 23.0 °F 26.6 °F 80% 29.40 in 2.5 mi North 11.5 mph 31.1 mph 0.00 in Snow Light Snow
7:11 PM 32.0 °F 23.6 °F 28.4 °F 87% 29.41 in 1.8 mi North 10.4 mph 35.7 mph 0.00 in Snow Light Snow
7:15 PM 32.0 °F 23.0 °F 28.4 °F 87% 29.40 in 2.5 mi East 11.5 mph 29.9 mph 0.00 in Snow Light Snow
7:23 PM 32.0 °F 20.8 °F 26.6 °F 80% 29.41 in 5.0 mi ENE 17.3 mph 33.4 mph 0.00 in Snow Light Snow
7:33 PM 30.2 °F 23.4 °F 26.6 °F 86% 29.43 in 4.0 mi Variable 6.9 mph 31.1 mph 0.00 in Snow Light Snow
7:58 PM 30.9 °F 22.8 °F 26.1 °F 82% 29.46 in 4.0 mi North 9.2 mph 33.4 mph 0.01 in Snow Light Snow
8:07 PM 30.2 °F 23.4 °F 24.8 °F 80% 29.44 in 7.0 mi Variable 6.9 mph 18.4 mph 0.00 in Snow Light Snow
8:43 PM 30.2 °F 17.8 °F 26.6 °F 86% 29.45 in 4.0 mi North 19.6 mph 24.2 mph 0.00 in Snow Light Snow
8:50 PM 30.2 °F 19.3 °F 26.6 °F 86% 29.46 in 2.5 mi North 15.0 mph 24.2 mph 0.00 in Snow Light Snow
8:58 PM 30.0 °F 20.0 °F 27.0 °F 88% 29.48 in 3.0 mi North 12.7 mph - 0.00 in Snow Light Snow
9:07 PM 30.2 °F 18.1 °F 26.6 °F 86% 29.46 in 1.8 mi NNW 18.4 mph - 0.00 in Snow Light Snow
9:16 PM 28.4 °F 17.5 °F 26.6 °F 93% 29.46 in 1.8 mi NW 13.8 mph - 0.00 in Snow Light Snow
9:23 PM 30.2 °F 22.6 °F 26.6 °F 86% 29.46 in 2.5 mi NW 8.1 mph - 0.00 in Snow Light Snow
9:28 PM 30.2 °F 21.9 °F 26.6 °F 86% 29.46 in 3.0 mi NW 9.2 mph - 0.00 in Snow Light Snow
9:34 PM 30.2 °F 22.6 °F 26.6 °F 86% 29.47 in 5.0 mi West 8.1 mph - 0.00 in Snow Light Snow
9:45 PM 30.2 °F 19.8 °F 26.6 °F 86% 29.47 in 6.0 mi WNW 13.8 mph 21.9 mph 0.00 in Snow Light Snow
9:58 PM 30.9 °F 22.8 °F 26.1 °F 82% 29.49 in 7.0 mi West 9.2 mph - 0.00 in Snow Light Snow
10:52 PM 32.0 °F 19.5 °F 21.2 °F 64% 29.48 in 9.0 mi NW 21.9 mph - 0.00 in   Overcast
10:58 PM 32.0 °F 19.8 °F 19.9 °F 61% 29.50 in 10.0 mi NW 20.7 mph - 0.00 in   Overcast
11:58 PM 32.0 °F 22.5 °F 19.0 °F 59% 29.51 in 10.0 mi WNW 12.7 mph - 0.00 in   Overcast